COSMOS 2218

导读 | 星芒AI

COSMOS 2218 是一颗由俄罗斯发射的军用通信卫星,于1992年12月19日使用质子-K火箭从拜科努尔航天发射场发射升空。该卫星属于俄罗斯的军事通信系统,用于支持战略和战术层面的通信需求。其具体轨道参数和任务细节未公开,但已知它运行在近地轨道。COSMOS 2218 是俄罗斯长期发展军用航天能力的一部分,体现了苏联解体后俄罗斯在军事卫星领域的持续投入。

基本信息
目录编号:
22207
目录名称:
COSMOS 2218
国际标识:
1992-073A
轨道中心:
EARTH
卫星名称:
COSMOS 2218
卫星全名:
--
卫星状态:
在轨 (已飞行12053 天)
发射日期:
1992-10-29 UTC
国别 :
俄罗斯(独联体) (CIS)
星等 :
--
轨道信息
数据来源 国际轨道数据
星历时间: 2025-10-28T20:05:26+0800
18小时前
查看轨道信息
半长轴: 7366.713km
偏心率: 0.0031161
轨道倾角: 82.918°
近地点辐角 285.536°
升交点赤经 307.132°
平近点角 186.648°
近地点: 965.622km
远地点: 1011.534km
周期: 104.875分钟
每日圈数: 13.730683
详细信息
使用方式:
暂无
2D轨道图
3D轨道图
轨道高度分析图
轨道倾角分析图
轨道综合分析图
查看轨道综合分析图